Regional Weather Roundup
Issued by NWS

Home | Current Version | Previous Version | Graphics & Text | Print | Product List | Glossary On
Versions: 1 2 3 4 5 6 7 8 9 10 11 12 13 14 15 16 17 18 19 20 21 22 23 24 25 26 27 28
000
ASUS45 KCYS 020710
RWRWY

WYOMING REGIONAL WEATHER ROUNDUP
NATIONAL WEATHER SERVICE CHEYENNE WY
1200 AM MST FRI DEC 02 2016

NOTE:  "FAIR" INDICATES FEW OR NO CLOUDS BELOW 12,000 FEET
WITH NO SIGNIFICANT WEATHER AND/OR OBSTRUCTIONS TO VISIBILITY.

WYZ001-020800-
YELLOWSTONE NATIONAL PARK

CITY           SKY/WX    TMP DP  RH WIND       PRES   REMARKS
LK YELLOWSTONE   N/A      5   2  87 NW3       30.06R
W YELLOWSTONE  NOT AVBL

$$
WYZ002>013-054>058-071-098>099-020800-
NORTHERN WYOMING

CITY           SKY/WX    TMP DP  RH WIND       PRES   REMARKS
JACKSON        CLOUDY    10  10 100 CALM      30.09R
CODY           MOCLDY    23  18  81 SE6       30.08R WCI  16
GREYBULL       MOCLDY    25  17  72 CALM      30.08R
WORLAND        MOCLDY    27  23  85 SW7       30.08R WCI  19
SHERIDAN       CLOUDY    31  23  72 S6        30.05R WCI  25
BUFFALO        CLOUDY    30  19  63 W8        30.04R WCI  22
GILLETTE       FAIR      27  24  89 W12       30.03R WCI  17
HULETT         FAIR      23  21  93 S9        30.04R WCI  13
NEWCASTLE      FAIR      23  23 100 NW3       30.06R

$$
WYZ014>020-022>026-101>103-020800-
CENTRAL WYOMING

CITY           SKY/WX    TMP DP  RH WIND       PRES   REMARKS
BIG PINEY      FAIR       7   3  84 N10       30.04R WCI  -8
PINEDALE       FAIR      10   5  79 NW9       30.04R WCI  -2
DUBOIS         FAIR      14   5  67 N5        30.02R WCI   6
LANDER         CLOUDY    16  10  77 CALM      30.05R
RIVERTON       MOCLDY    21  15  78 SW6       30.06R WCI  13
CASPER         CLOUDY    23  22  96 CALM      30.05R
DOUGLAS        CLOUDY    25  23  92 W6        30.06R WCI  18

$$
WYZ021-027>030-104>119-020800-
SOUTHERN WYOMING

CITY           SKY/WX    TMP DP  RH WIND       PRES   REMARKS
EVANSTON       MOCLDY    18  12  77 CALM      30.05S
FORT BRIDGER   FAIR      17  15  93 W9        30.08S WCI   5
ROCK SPRINGS   FAIR      14  11  87 W10       30.04R WCI   1
DIXON          CLOUDY    20  18  91 SE3       30.08R
RAWLINS        MOCLDY    17  14  88 SW9       30.02R WCI   6
SARATOGA       CLOUDY    14  14 100 NW5       30.03R WCI   6
LARAMIE        CLOUDY    18  14  84 SE7       29.98R WCI   9
CHEYENNE       CLOUDY    22  14  71 SW6       30.02S WCI  14
TORRINGTON     CLOUDY    25  18  74 NW5       30.06R WCI  19
PINE BLUFFS    PTSUNNY   19  16  86 W7        30.05S WCI  10

$$




USA.gov is the U.S. government's official web portal to all federal, state and local government web resources and services.